N7AWM Weather Reports


time (UTC)temp
F
wind
direction
speed
knots
gust
knots
rain 1hr
in
rain 24hr
in
rain mn
in
humidity
%
barometer
mb
20260507115946 54 326 7.8 9.6 0.00 0.00 0.00 40 1010.5
20260507114546 52 333 7.0 14.8 0.00 0.00 0.00 53 1010.5
20260507113146 52 328 1.7 5.2 0.00 0.00 0.00 56 1010.6
20260507111746 53 315 4.3 8.7 0.00 0.00 0.00 57 1010.5
20260507110346 54 321 7.0 11.3 0.00 0.00 0.00 55 1010.5
20260507104946 54 335 7.0 12.2 0.00 0.00 0.00 55 1010.3
20260507103546 51 327 7.0 12.2 0.00 0.00 0.00 66 1010.4
20260507102146 52 352 6.1 9.6 0.00 0.00 0.00 64 1010.6
20260507100746 55 329 7.8 10.4 0.00 0.00 0.00 59 1010.7
20260507095346 56 335 8.7 11.3 0.00 0.00 0.00 55 1010.6
20260507093946 57 349 9.6 16.5 0.00 0.00 0.00 54 1010.6
20260507092546 59 330 10.4 15.6 0.00 0.00 0.00 49 1010.4
20260507091147 60 293 12.2 20.9 0.00 0.00 0.00 47 1010.0
20260507085747 61 340 11.3 19.1 0.00 0.00 0.00 42 1009.8
20260507084347 61 293 10.4 18.2 0.00 0.00 0.00 42 1009.7
20260507082947 62 313 10.4 19.1 0.00 0.00 0.00 40 1009.4
20260507081547 62 321 13.0 21.7 0.00 0.00 0.00 40 1009.2
20260507080147 61 314 11.3 21.7 0.00 0.00 0.00 44 1009.2
20260507074747 62 347 12.2 17.4 0.00 0.00 0.00 43 1009.1
20260507073347 60 342 8.7 13.9 0.00 0.00 0.00 49 1009.2
20260507071947 59 352 10.4 14.8 0.00 0.00 0.00 53 1009.3
20260507070547 61 344 7.8 10.4 0.00 0.00 0.00 47 1009.2
20260507065147 61 310 7.8 14.8 0.00 0.00 0.00 46 1009.4
20260507063747 60 349 3.5 7.0 0.00 0.00 0.00 50 1009.6
20260507062347 61 323 5.2 12.2 0.00 0.00 0.00 50 1009.6
20260507060947 61 283 7.8 11.3 0.00 0.00 0.00 50 1009.7
20260507055547 61 319 7.0 13.9 0.00 0.00 0.00 50 1009.6
20260507054148 60 302 7.8 13.9 0.00 0.00 0.00 51 1010.0
20260507052748 61 271 7.0 13.9 0.00 0.00 0.00 52 1009.9
20260507051348 62 259 7.8 12.2 0.00 0.00 0.00 50 1009.8
20260507045948 63 269 7.8 14.8 0.00 0.00 0.00 47 1009.6
20260507044548 63 292 7.8 11.3 0.00 0.00 0.00 47 1009.7
20260507043148 64 308 6.1 14.8 0.00 0.00 0.00 45 1009.9
20260507041748 65 342 2.6 6.1 0.00 0.00 0.00 42 1009.8
20260507040348 66 6 0.9 3.5 0.00 0.00 0.00 39 1009.7
20260507034948 67 60 0.9 3.5 0.00 0.00 0.00 37 1009.6
20260507033548 67 79 2.6 7.8 0.00 0.00 0.00 39 1009.3
20260507032148 68 341 5.2 9.6 0.00 0.00 0.00 37 1009.2
20260507030748 68 316 5.2 9.6 0.00 0.00 0.00 37 1009.1
20260507025348 69 322 7.8 12.2 0.00 0.00 0.00 37 1008.8
20260507023948 69 312 7.8 13.0 0.00 0.00 0.00 37 1008.8
20260507022548 70 300 7.8 13.9 0.00 0.00 0.00 36 1009.0
20260507021149 70 283 7.0 10.4 0.00 0.00 0.00 36 1009.1
20260507015749 71 269 8.7 12.2 0.00 0.00 0.00 35 1009.2
20260507014349 71 267 9.6 15.6 0.00 0.00 0.00 35 1009.2
20260507012949 71 300 7.8 13.0 0.00 0.00 0.00 35 1009.1
20260507011549 70 274 7.0 10.4 0.00 0.00 0.00 34 1008.9
20260507010149 70 256 7.8 11.3 0.00 0.00 0.00 36 1009.0
20260507004749 70 287 7.8 11.3 0.00 0.00 0.00 36 1008.8
20260507003349 70 302 8.7 15.6 0.00 0.00 0.00 37 1008.7
20260507001949 71 285 9.6 14.8 0.00 0.00 0.00 38 1008.6
20260507000549 71 291 9.6 14.8 0.00 0.00 0.00 38 1008.5
20260506235149 71 302 11.3 16.5 0.00 0.00 0.00 38 1008.3
20260506233749 72 287 10.4 15.6 0.00 0.00 0.00 38 1008.1
20260506232349 72 276 11.3 20.0 0.00 0.00 0.00 39 1008.1
20260506230949 73 293 12.2 21.7 0.00 0.00 0.00 37 1008.1
20260506225549 73 279 11.3 20.0 0.00 0.00 0.00 35 1008.0
20260506224150 74 297 13.9 23.5 0.00 0.00 0.00 35 1008.1
20260506222750 75 314 12.2 20.0 0.00 0.00 0.00 34 1008.2
20260506221350 76 307 12.2 20.0 0.00 0.00 0.00 31 1008.2
20260506215950 75 315 12.2 19.1 0.00 0.00 0.00 32 1008.2
20260506214550 75 299 13.9 20.9 0.00 0.00 0.00 40 1008.2
20260506213150 76 305 12.2 18.2 0.00 0.00 0.00 33 1008.2
20260506211750 76 302 13.9 21.7 0.00 0.00 0.00 33 1008.4
20260506210350 78 311 11.3 20.0 0.00 0.00 0.00 31 1008.1
20260506204950 79 304 8.7 18.2 0.00 0.00 0.00 35 1007.9
20260506203550 79 321 7.0 12.2 0.00 0.00 0.00 32 1007.9
20260506202150 80 320 6.1 11.3 0.00 0.00 0.00 35 1007.9
20260506200750 79 285 7.8 13.9 0.00 0.00 0.00 35 1008.0
20260506195350 78 293 9.6 14.8 0.00 0.00 0.00 33 1007.9
20260506193950 79 308 8.7 13.0 0.00 0.00 0.00 34 1008.1
20260506192550 79 315 7.8 12.2 0.00 0.00 0.00 32 1008.3
20260506191150 78 334 8.7 12.2 0.00 0.00 0.00 33 1008.2
20260506185751 78 311 7.8 13.0 0.00 0.00 0.00 36 1008.1
20260506184351 79 205 5.2 13.0 0.00 0.00 0.00 33 1008.3
20260506182951 78 242 2.6 4.3 0.00 0.00 0.00 36 1008.3
20260506181551 78 345 1.7 4.3 0.00 0.00 0.00 39 1008.4
20260506180151 76 172 6.1 9.6 0.00 0.00 0.00 39 1008.5
20260506174751 77 134 3.5 7.0 0.00 0.00 0.00 36 1008.5
20260506173351 76 179 4.3 8.7 0.00 0.00 0.00 39 1008.5
20260506171951 75 100 3.5 7.0 0.00 0.00 0.00 36 1008.7
20260506170551 75 118 4.3 7.0 0.00 0.00 0.00 38 1008.7
20260506165151 74 144 5.2 8.7 0.00 0.00 0.00 41 1008.7
20260506163751 74 117 3.5 6.1 0.00 0.00 0.00 43 1008.7
20260506162351 74 119 3.5 4.3 0.00 0.00 0.00 42 1008.7
20260506160951 74 174 4.3 7.8 0.00 0.00 0.00 43 1008.8
20260506155551 74 290 5.2 9.6 0.00 0.00 0.00 39 1009.0
20260506154151 73 303 7.0 10.4 0.00 0.00 0.00 40 1009.2
20260506152752 72 304 6.1 11.3 0.00 0.00 0.00 42 1009.2
20260506151352 70 301 7.8 10.4 0.00 0.00 0.00 46 1009.2
20260506145952 70 288 7.8 13.9 0.00 0.00 0.00 45 1009.2
20260506144552 69 344 9.6 13.9 0.00 0.00 0.00 44 1009.1
20260506143152 68 316 8.7 14.8 0.00 0.00 0.00 45 1009.0
20260506141752 68 308 6.1 11.3 0.00 0.00 0.00 45 1009.0
20260506140352 68 304 6.1 12.2 0.00 0.00 0.00 45 1009.1
20260506134952 68 304 7.0 10.4 0.00 0.00 0.00 43 1009.0
20260506133552 68 316 7.8 13.0 0.00 0.00 0.00 44 1008.9
20260506132152 67 311 6.1 10.4 0.00 0.00 0.00 42 1008.8
20260506130752 66 338 4.3 8.7 0.00 0.00 0.00 43 1008.8
20260506125352 66 322 5.2 7.8 0.00 0.00 0.00 44 1008.5
20260506123952 66 304 5.2 9.6 0.00 0.00 0.00 43 1008.5
20260506122552 66 307 5.2 9.6 0.00 0.00 0.00 42 1008.4
20260506121152 66 302 3.5 6.1 0.00 0.00 0.00 41 1008.4